User: anonymous   Login
Location: Pian di Sc�
(43.6333°N, 11.5500°E)
Time: 23:50:51
(UTC+00:00)
Language:

CZ-2D R/B - Orbit

View from above orbital plane
View from above orbital plane
View from above satellite
View from above satellite

Ground track
Ground track

The orbit data is extracted from the following two-line orbital elements,

1 37932U 11068C   20292.83532876  .00000020  00000-0  28290-4 0  9994
2 37932  98.6645 226.8183 0038097 107.1107 315.0410 14.22046961462638
Epoch (UTC): 18 October 2020 20:02:52
Eccentricity: 0.0038097
inclination: 98.6645°
perigee height: 791 km
apogee height: 846 km
right ascension of ascending node: 226.8183°
argument of perigee: 107.1107°
revolutions per day: 14.22046961
mean anomaly at epoch: 315.0410°
orbit number at epoch: 46263

The dashed part of the orbit path shows where the satellite is in the earth's shadow,  

DLR